When you browse on this site, cookies collect data to enhance your experience and personalize the content and advertising you see.
Visit our Privacy Policy to learn more. By continuing to use the site, you agree to this use of cookies and data.
  • In United Kingdom
  • List of Countries
  • For 7 days
  • Water Temperature
  • Satellite Maps
  • Weather Map
  • Weather Widgets
  • user-avatar
    Login

    Hourly Weather Manizales

    Today, 19 April, Friday

    Time Temperature Precipitation Wind Pressure Humidity
    00:00 +16°C° 0.2 mm 1 mps 602 mmHg 79%
    01:00 +15°C° 0.2 mm 0 mps 602 mmHg 80%
    02:00 +16°C° 0.4 mm 1 mps 601 mmHg 81%
    03:00 +16°C° 0.4 mm 1 mps 601 mmHg 81%
    04:00 +16°C° 0.4 mm 1 mps 601 mmHg 82%
    05:00 +15°C° 0.4 mm 0 mps 601 mmHg 81%
    06:00 +15°C° 0.4 mm 0 mps 602 mmHg 80%
    07:00 +16°C° 0.4 mm 0 mps 602 mmHg 78%
    08:00 +17°C° 0.5 mm 0 mps 603 mmHg 73%
    09:00 +19°C° 0.5 mm 0 mps 604 mmHg 68%
    10:00 +20°C° 0.5 mm 0 mps 605 mmHg 63%
    11:00 +21°C° 0.5 mm 0 mps 605 mmHg 62%
    12:00 +22°C° 0.5 mm 0 mps 605 mmHg 60%
    13:00 +23°C° 0.5 mm 0 mps 605 mmHg 58%
    14:00 +22°C° 0.4 mm 0 mps 604 mmHg 58%
    15:00 +22°C° 0.4 mm 0 mps 603 mmHg 58%
    16:00 +21°C° 0.4 mm 0 mps 603 mmHg 58%
    17:00 +20°C° 0.4 mm 0 mps 602 mmHg 64%
    18:00 +18°C° 0.4 mm 0 mps 602 mmHg 69%
    19:00 +16°C° 0.4 mm 0 mps 602 mmHg 75%
    20:00 +15°C° 0.5 mm 0 mps 602 mmHg 77%
    21:00 +15°C° 0.5 mm 0 mps 603 mmHg 78%
    22:00 +16°C° 0.5 mm 1 mps 603 mmHg 80%
    23:00 +16°C° 0.7 mm 1 mps 603 mmHg 81%

    Tomorrow, 20 April, Saturday

    Time Temperature Precipitation Wind Pressure Humidity
    00:00 +15°C° 0.7 mm 0 mps 603 mmHg 82%
    01:00 +14°C° 0.7 mm 0 mps 602 mmHg 83%
    02:00 +14°C° 0.4 mm 0 mps 602 mmHg 83%
    03:00 +14°C° 0.4 mm 0 mps 602 mmHg 84%
    04:00 +14°C° 0.4 mm 0 mps 602 mmHg 84%
    05:00 +14°C° 0.2 mm 0 mps 602 mmHg 83%
    06:00 +15°C° 0.2 mm 0 mps 603 mmHg 82%
    07:00 +15°C° 0.2 mm 0 mps 603 mmHg 81%
    08:00 +17°C° 0.3 mm 0 mps 604 mmHg 73%
    09:00 +19°C° 0.3 mm 0 mps 605 mmHg 66%
    10:00 +21°C° 0.3 mm 0 mps 606 mmHg 58%
    11:00 +22°C° 0.4 mm 0 mps 606 mmHg 57%
    12:00 +22°C° 0.4 mm 0 mps 605 mmHg 57%
    13:00 +25°C° 0.4 mm 1 mps 605 mmHg 56%
    14:00 +24°C° 0.4 mm 1 mps 604 mmHg 57%
    15:00 +24°C° 0.4 mm 1 mps 603 mmHg 57%
    16:00 +23°C° 0.4 mm 1 mps 603 mmHg 58%
    17:00 +21°C° 0.3 mm 1 mps 602 mmHg 64%
    18:00 +18°C° 0.3 mm 0 mps 602 mmHg 69%
    19:00 +16°C° 0.3 mm 0 mps 602 mmHg 75%
    20:00 +16°C° 0.3 mm 0 mps 602 mmHg 76%
    21:00 +16°C° 0.3 mm 1 mps 603 mmHg 78%
    22:00 +16°C° 0.3 mm 1 mps 603 mmHg 80%
    23:00 +15°C° 0.5 mm 0 mps 603 mmHg 82%

    Day after tomorrow, 21 April, Sunday

    Time Temperature Precipitation Wind Pressure Humidity
    00:00 +14°C° 0.5 mm 0 mps 603 mmHg 83%
    01:00 +14°C° 0.5 mm 0 mps 602 mmHg 85%
    02:00 +14°C° 0.4 mm 0 mps 602 mmHg 86%
    03:00 +14°C° 0.4 mm 0 mps 602 mmHg 88%
    04:00 +13°C° 0.4 mm 0 mps 601 mmHg 89%
    05:00 +14°C° 0.4 mm 0 mps 602 mmHg 87%
    06:00 +14°C° 0.4 mm 0 mps 603 mmHg 85%
    07:00 +15°C° 0.4 mm 0 mps 603 mmHg 82%
    08:00 +16°C° 0.6 mm 0 mps 604 mmHg 77%
    09:00 +18°C° 0.6 mm 0 mps 605 mmHg 72%
    10:00 +19°C° 0.6 mm 0 mps 606 mmHg 67%
    11:00 +22°C° 0.6 mm 1 mps 605 mmHg 64%
    12:00 +23°C° 0.6 mm 1 mps 605 mmHg 61%
    13:00 +24°C° 0.6 mm 1 mps 605 mmHg 58%
    14:00 +23°C° 0.5 mm 1 mps 604 mmHg 59%
    15:00 +23°C° 0.5 mm 1 mps 603 mmHg 60%
    16:00 +22°C° 0.5 mm 1 mps 603 mmHg 60%
    17:00 +21°C° 0.3 mm 1 mps 602 mmHg 67%
    18:00 +19°C° 0.3 mm 1 mps 602 mmHg 74%
    19:00 +15°C° 0.3 mm 0 mps 602 mmHg 80%
    20:00 +15°C° 0.3 mm 0 mps 602 mmHg 81%
    21:00 +14°C° 0.3 mm 0 mps 603 mmHg 82%
    22:00 +14°C° 0.3 mm 0 mps 603 mmHg 83%
    23:00 +14°C° 0.3 mm 0 mps 603 mmHg 84%

    22 April, Monday

    Time Temperature Precipitation Wind Pressure Humidity
    00:00 +14°C° 0.3 mm 0 mps 602 mmHg 85%
    01:00 +14°C° 0.3 mm 0 mps 602 mmHg 86%
    02:00 +14°C° 0.4 mm 0 mps 602 mmHg 86%
    03:00 +13°C° 0.4 mm 0 mps 601 mmHg 86%
    04:00 +13°C° 0.4 mm 0 mps 601 mmHg 87%
    05:00 +14°C° 0.5 mm 0 mps 602 mmHg 86%
    06:00 +14°C° 0.5 mm 0 mps 602 mmHg 85%
    07:00 +14°C° 0.5 mm 0 mps 603 mmHg 84%
    08:00 +15°C° 0.5 mm 0 mps 603 mmHg 80%
    09:00 +16°C° 0.5 mm 0 mps 604 mmHg 76%
    10:00 +20°C° 0.5 mm 1 mps 605 mmHg 72%
    11:00 +20°C° 0.6 mm 1 mps 604 mmHg 70%
    12:00 +21°C° 0.6 mm 1 mps 604 mmHg 69%
    13:00 +21°C° 0.6 mm 1 mps 603 mmHg 68%
    14:00 +21°C° 0.4 mm 1 mps 603 mmHg 69%
    15:00 +20°C° 0.4 mm 1 mps 602 mmHg 70%
    16:00 +20°C° 0.4 mm 1 mps 602 mmHg 71%
    17:00 +19°C° 0.2 mm 1 mps 602 mmHg 75%
    18:00 +16°C° 0.2 mm 0 mps 602 mmHg 78%
    19:00 +14°C° 0.2 mm 0 mps 602 mmHg 82%
    20:00 +14°C° 0.3 mm 0 mps 602 mmHg 83%
    21:00 +14°C° 0.3 mm 0 mps 602 mmHg 83%
    22:00 +14°C° 0.3 mm 0 mps 603 mmHg 84%
    23:00 +14°C° 0.3 mm 0 mps 602 mmHg 85%

    23 April, Tuesday

    Time Temperature Precipitation Wind Pressure Humidity
    00:00 +13°C° 0.3 mm 0 mps 602 mmHg 85%
    01:00 +13°C° 0.3 mm 0 mps 602 mmHg 86%
    02:00 +13°C° 0.3 mm 0 mps 601 mmHg 87%
    03:00 +13°C° 0.3 mm 0 mps 601 mmHg 87%
    04:00 +13°C° 0.3 mm 0 mps 601 mmHg 87%
    05:00 +13°C° 0.2 mm 0 mps 602 mmHg 86%
    06:00 +14°C° 0.2 mm 0 mps 602 mmHg 86%
    07:00 +14°C° 0.2 mm 0 mps 603 mmHg 85%
    08:00 +15°C° 0.3 mm 0 mps 603 mmHg 80%
    09:00 +17°C° 0.3 mm 0 mps 604 mmHg 76%
    10:00 +18°C° 0.3 mm 0 mps 604 mmHg 72%
    11:00 +19°C° 0.5 mm 0 mps 604 mmHg 70%
    12:00 +20°C° 0.5 mm 0 mps 603 mmHg 68%
    13:00 +20°C° 0.5 mm 0 mps 603 mmHg 66%
    14:00 +20°C° 0.3 mm 0 mps 603 mmHg 65%
    15:00 +20°C° 0.3 mm 0 mps 602 mmHg 63%
    16:00 +20°C° 0.3 mm 0 mps 602 mmHg 62%
    17:00 +19°C° 0 mm 0 mps 602 mmHg 66%
    18:00 +19°C° 0 mm 1 mps 602 mmHg 70%
    19:00 +16°C° 0 mm 1 mps 601 mmHg 74%
    20:00 +16°C° 0 mm 1 mps 602 mmHg 76%
    21:00 +16°C° 0 mm 1 mps 602 mmHg 77%
    22:00 +15°C° 0 mm 1 mps 602 mmHg 79%
    23:00 +15°C° 0 mm 1 mps 602 mmHg 80%

    24 April, Wednesday

    Time Temperature Precipitation Wind Pressure Humidity
    00:00 +15°C° 0 mm 1 mps 602 mmHg 80%
    01:00 +15°C° 0 mm 1 mps 601 mmHg 81%
    02:00 +15°C° 0 mm 1 mps 601 mmHg 81%
    03:00 +15°C° 0 mm 1 mps 601 mmHg 82%
    04:00 +14°C° 0 mm 1 mps 601 mmHg 82%
    05:00 +15°C° 0 mm 1 mps 602 mmHg 80%
    06:00 +15°C° 0 mm 0 mps 602 mmHg 78%
    07:00 +15°C° 0 mm 0 mps 603 mmHg 76%
    08:00 +20°C° 0 mm 1 mps 604 mmHg 66%
    09:00 +22°C° 0 mm 1 mps 605 mmHg 56%
    10:00 +25°C° 0 mm 1 mps 606 mmHg 47%
    11:00 +26°C° 0.1 mm 1 mps 606 mmHg 45%
    12:00 +26°C° 0.1 mm 1 mps 605 mmHg 44%
    13:00 +27°C° 0.1 mm 1 mps 605 mmHg 42%
    14:00 +26°C° 0.1 mm 1 mps 604 mmHg 44%
    15:00 +26°C° 0.1 mm 1 mps 603 mmHg 45%
    16:00 +25°C° 0.1 mm 1 mps 603 mmHg 46%
    17:00 +23°C° 0.2 mm 1 mps 602 mmHg 54%
    18:00 +21°C° 0.2 mm 1 mps 602 mmHg 62%
    19:00 +18°C° 0.2 mm 1 mps 601 mmHg 70%
    20:00 +18°C° 0.1 mm 1 mps 602 mmHg 72%
    21:00 +16°C° 0.1 mm 1 mps 602 mmHg 74%
    22:00 +16°C° 0.1 mm 1 mps 602 mmHg 75%
    23:00 +16°C° 0.2 mm 1 mps 602 mmHg 77%
    Show more